Regional Weather Roundup
Issued by NWS

Home | Current Version | Previous Version | Graphics & Text | Print | Product List | Glossary On
Versions: 1 2 3 4 5 6 7 8 9 10 11 12 13 14 15 16 17 18 19 20 21 22 23 24 25 26 27 28 29 30 31 32 33 34 35 36 37 38 39 40 41 42 43 44 45 46 47 48 49 50
000
ASUS43 KLSX 271059
RWRMO

WEATHER SUMMARY FOR MISSOURI
NATIONAL WEATHER SERVICE SPRINGFIELD MO
600 AM CDT WED AUG 27 2014

NOTE: "FAIR" INDICATES FEW OR NO CLOUDS BELOW 12,000 FEET WITH NO
       SIGNIFICANT WEATHER AND/OR OBSTRUCTIONS TO VISIBILITY.
       CURRENT SKY AND/OR WEATHER CONDITIONS ARE NOT AVAILABLE FOR
       CHILLICOTHE AND FARMINGTON.

MOZ001>031-035>038-043-044-053-054-271200-
...NORTHERN AND WESTERN MISSOURI...

CITY           SKY/WX    TMP DP  RH WIND       PRES   REMARKS
KANSAS CTY INT MOCLDY    74  72  93 SE6       30.07R
KANSAS C DTWN  MOCLDY    76  72  87 E3        30.05R
LEE`S SUMMIT   CLEAR     73  71  93 SE3       30.07R
ST JOSEPH      MOCLDY    73  70  90 N16       30.10R
KIRKSVILLE     CLEAR     69  67  93 NE7       30.10F

$$
MOZ066>068-077>081-088>096-101>105-271200-
...SOUTHWEST MISSOURI...

CITY           SKY/WX    TMP DP  RH WIND       PRES   REMARKS
SPRINGFIELD    CLEAR     71  66  84 S5        30.09S
JOPLIN         CLEAR     73  67  81 VRB5      30.07F

$$
MOZ032>034-039>042-045>050-055>058-069>072-271200-
...CENTRAL MISSOURI...

CITY           SKY/WX    TMP DP  RH WIND       PRES   REMARKS
COLUMBIA       FOG       72  71  97 E3        30.07S VSB 1/2
JEFFERSON CITY CLEAR     71  69  93 CALM      30.06S
ROLLA          CLEAR     71  66  84 SW8       30.07F
SEDALIA        CLEAR     71  67  87 SE5       30.06F
OSAGE BEACH    CLEAR     68  64  88 CALM      30.07S

$$
MOZ051-052-059>065-271200-
...EAST CENTRAL MISSOURI...

CITY           SKY/WX    TMP DP  RH WIND       PRES   REMARKS
ST LOUIS INTL  PTCLDY    76  69  79 CALM      30.07S
SPIRIT OF STL  CLEAR     72  69  90 CALM      30.05S
ST CHARLES     CLEAR     72  69  90 CALM      30.05S

$$
MOZ072>076-082>087-097>100-106>115-271200-
...SOUTH CENTRAL AND SOUTHEAST MISSOURI...

CITY           SKY/WX    TMP DP  RH WIND       PRES   REMARKS
CAPE GIRARDEAU PTCLDY    70  69  97 CALM      30.07R FOG
FARMINGTON     CLEAR     70  68  94 CALM      30.11S
POPLAR BLUFF   CLEAR     71  67  87 CALM      30.06R FOG
WEST PLAINS    CLEAR     69  66  90 CALM      30.12R

$$



USA.gov is the U.S. government's official web portal to all federal, state and local government web resources and services.